[[{"header":{"parameterUnit":"m.s-1","parameterCategory":1,"la1":30.2991,"la2":30.254,"lo1":-89.0895,"lo2":-89.0444,"dy":0.0017,"dx":0.0017,"nx":28,"ny":28,"refTime":"2024-12-17T03:00:00:Z","depth":0,"parameterNumber":2,"parameterNumberName":"U-component_of_WINDS"},"data":[0,0,0,0,0,0,0,0,0,0,0,0,0,0,0,0,0,0,0,0,0,0,0,0,0,0,0,0,0,0,0,0,0,0,0,0,0,0,0,0,0,0,0,0,0,0,0,0,0,0,0,0,0,0,0,0,0,0,2.9537,2.9537,0,2.9579,2.958,2.958,2.9483,2.948,2.9477,2.9474,2.952,2.9524,2.9528,0,0,0,0,0,0,0,0,0,0,0,0,0,2.9377,2.938,2.9537,2.9537,2.9538,2.9579,2.958,2.958,2.9483,2.948,2.9476,2.9472,2.9518,2.9523,2.9528,0,0,0,0,0,0,0,0,0,0,0,0,0,2.9435,2.9381,2.9537,2.9494,2.9491,2.9579,2.958,2.958,2.9484,2.9479,2.9475,2.947,2.9517,2.9523,2.9529,2.9661,0,0,2.9548,2.955,0,0,0,0,0,0,0,0,2.9432,2.9441,2.95,2.9497,2.9494,2.9521,2.954,2.9607,2.9485,2.9487,2.9474,2.9468,2.9524,2.9529,2.9548,2.9663,2.9665,2.9548,2.9552,2.9555,2.9557,0,0,0,0,0,0,0,2.9428,2.9439,2.9553,2.9501,2.9497,2.9475,2.9478,2.9552,2.9531,2.9486,2.9479,2.9486,2.9521,2.9542,2.9548,2.9665,2.9548,2.9554,2.9557,2.956,2.9894,2.9899,0,0,0,0,0,0,2.9429,2.9436,2.9552,2.9555,2.9451,2.9481,2.9485,2.9517,2.953,2.9528,2.949,2.9481,2.9534,2.9541,2.9549,2.9706,2.9555,2.9561,2.9564,2.9889,2.9895,2.9901,0,0,0,0,0,0,2.9426,2.944,2.955,2.9494,2.9506,2.9489,2.9526,2.952,2.954,2.9532,2.9529,2.9514,2.953,2.9541,2.9634,2.9706,2.9563,2.9569,2.9883,2.9891,2.9898,3.002,0,0,0,0,0,0,2.9422,2.944,2.9488,2.9495,2.9509,2.9634,2.953,2.9524,2.9551,2.954,2.9554,2.9552,2.9527,2.9625,2.964,2.9712,2.9574,2.9876,2.9886,2.9895,3.001,3.0031,3.005,0,0,0,0,0,2.9416,2.9521,2.9491,2.9506,2.957,2.9638,2.9646,2.9614,2.9557,2.9607,2.9602,2.9552,2.9696,2.9636,2.9652,2.9727,2.9871,2.9883,2.9895,3.0001,3.0027,3.0049,0,0,0,0,0,0,2.9523,2.9521,2.9488,2.9598,2.9619,2.9621,2.9683,2.9643,2.9681,2.9669,2.9629,2.9633,2.9735,2.974,2.9673,2.9856,2.9774,2.979,2.9849,2.9874,2.9894,2.9891,2.9579,0,0,0,0,0,2.9559,2.9614,2.9609,2.9707,2.9719,2.97,2.9728,2.9702,2.9722,2.9731,2.9733,2.9756,2.9806,2.984,2.9886,3.001,3.0013,3.007,3.009,3.0106,3.012,3.0189,3.0214,2.9939,2.9939,2.9938,0,0,2.9635,2.964,2.9677,2.9728,2.9741,2.9801,2.9707,2.9773,2.9817,2.9741,2.983,2.9833,2.9856,2.9966,3.0014,2.9973,3.0197,3.0121,3.0134,3.0139,3.0203,3.0229,3.0253,2.9947,2.9945,2.9944,0,0,2.9802,2.9811,2.9895,2.991,2.9931,2.9918,2.9939,2.9948,2.9947,3.0035,2.998,3.0033,3.012,3.0139,3.0161,3.034,3.0296,3.0356,3.046,3.0528,3.0549,3.0568,3.0634,3.0658,3.037,3.037,3.037,0,2.9894,2.9979,2.9943,3.0013,3.0038,2.9972,3.0058,3.0075,3.0111,3.0131,3.0084,3.0194,3.0204,3.0319,3.0363,3.0382,3.0406,3.0354,3.0549,3.0568,3.0585,3.0647,3.0672,3.0377,3.0376,3.0376,3.0375,0,3.0092,3.0152,3.0217,3.0253,3.0286,3.0363,3.0341,3.0378,3.0351,3.0343,3.0436,3.0447,3.0495,3.052,3.0493,3.0633,3.0606,3.0555,3.0472,3.0619,3.0677,3.0701,3.0388,3.0385,3.0383,3.0381,0,0,3.0326,3.0343,3.0368,3.0384,3.0404,3.0451,3.0527,3.0574,3.0608,3.0636,3.07,3.0777,3.073,3.0755,3.073,3.0789,3.0933,3.073,3.073,3.0769,3.109,3.1129,3.1157,3.0904,3.0908,3.0911,3.1088,0,3.0493,3.0622,3.0594,3.0722,3.0779,3.0718,3.0785,3.0806,3.0802,3.0851,3.0846,3.0902,3.0835,3.085,3.0905,3.0903,3.0997,3.089,3.0965,3.0968,3.0962,3.1187,3.1228,3.1394,3.111,3.1114,3.1117,0,3.0705,3.0741,3.0875,3.0889,3.0911,3.0971,3.1014,3.1061,3.1084,3.1077,3.1106,3.1071,3.1148,3.1064,3.1172,3.11,3.1129,3.1133,3.1139,3.1145,3.1052,3.1201,3.1446,3.1472,3.1152,3.1149,3.1147,0,3.0865,3.0947,3.1039,3.1055,3.1072,3.1116,3.1126,3.1144,3.1176,3.1213,3.1233,3.1279,3.1305,3.1343,3.1322,3.1262,3.1434,3.1348,3.1432,3.1433,3.1471,3.147,3.1727,3.1489,3.1489,3.1488,3.1488,0,3.1055,3.114,3.1111,3.1167,3.1262,3.1229,3.1323,3.1326,3.1344,3.1401,3.1352,3.1407,3.1376,3.1429,3.1413,3.1507,3.1518,3.1516,3.1511,3.1521,3.1522,3.154,3.1528,3.1495,3.1493,3.1492,3.1491,0,3.1249,3.1233,3.1329,3.1338,3.1343,3.1412,3.1421,3.1475,3.1468,3.1541,3.1557,3.1546,3.1607,3.159,3.1655,3.1645,3.1763,3.1743,3.1755,3.1751,3.1837,3.183,3.2115,3.2152,3.189,3.1892,3.1895,0,3.1372,3.1436,3.1453,3.1488,3.1501,3.1557,3.1589,3.156,3.1596,3.1629,3.1679,3.1736,3.1779,3.188,3.1879,3.193,3.1911,3.2008,3.1918,3.1927,3.1914,3.1911,3.1919,3.2026,3.2029,3.2031,3.2033,0,3.1592,3.1582,3.1629,3.1675,3.1714,3.1749,3.1779,3.1811,3.1784,3.1827,3.1888,3.1922,3.199,3.2048,3.2095,3.2106,3.2067,3.2061,3.2084,3.2095,3.21,3.2101,3.1805,3.2055,3.2053,3.2051,3.205,3.2049,3.1755,3.1811,3.1832,3.1887,3.1907,3.1937,3.1988,3.1989,3.2039,3.2092,3.2072,3.2144,3.2168,3.2227,3.2245,3.2302,3.2265,3.2297,3.2306,3.2314,3.2326,3.2091,3.231,3.2309,3.2309,3.2308,3.2308,0,3.1974,3.1986,3.2037,3.2081,3.2125,3.2084,3.2116,3.2156,3.2219,3.2245,3.229,3.2362,3.2418,3.2423,3.2476,3.2521,3.2505,3.2536,3.2533,3.2537,3.2355,3.2331,3.2549,3.2549,3.2549,3.2549,3.2549,3.2549,3.2094,3.2185,3.2178,3.228,3.2291,3.236,3.2383,3.2411,3.2432,3.2515,3.2561,3.2564,3.2583,3.2637,3.2688,3.2688,3.2711,3.275,3.2744,3.2573,3.2549,3.2527,3.2504,3.2755,3.2755,3.2921,3.2923,3.2924]},{"header":{"parameterUnit":"m.s-1","parameterCategory":1,"la1":30.2991,"la2":30.254,"lo1":-89.0895,"lo2":-89.0444,"dy":0.0017,"dx":0.0017,"nx":28,"ny":28,"refTime":"2024-12-17T03:00:00:Z","depth":0,"parameterNumber":3,"parameterNumberName":"V-component_of_WINDS"},"data":[0,0,0,0,0,0,0,0,0,0,0,0,0,0,0,0,0,0,0,0,0,0,0,0,0,0,0,0,0,0,0,0,0,0,0,0,0,0,0,0,0,0,0,0,0,0,0,0,0,0,0,0,0,0,0,0,0,0,-0.0315,-0.0314,0,-0.0251,-0.025,-0.025,-0.0264,-0.0265,-0.0267,-0.0268,-0.0196,-0.0193,-0.019,0,0,0,0,0,0,0,0,0,0,0,0,0,-0.0446,-0.0444,-0.0315,-0.0314,-0.0314,-0.0251,-0.025,-0.025,-0.0264,-0.0265,-0.0267,-0.0268,-0.0197,-0.0193,-0.019,0,0,0,0,0,0,0,0,0,0,0,0,0,-0.0386,-0.0443,-0.0315,-0.0313,-0.0313,-0.0251,-0.025,-0.0249,-0.0264,-0.0265,-0.0267,-0.0269,-0.0198,-0.0194,-0.0189,-0.0124,0,0,-0.0175,-0.0173,0,0,0,0,0,0,0,0,-0.039,-0.0381,-0.0314,-0.0313,-0.0312,-0.0268,-0.027,-0.0207,-0.0263,-0.0282,-0.0268,-0.027,-0.0218,-0.0212,-0.0196,-0.0121,-0.0117,-0.0175,-0.0172,-0.017,-0.0169,0,0,0,0,0,0,0,-0.0394,-0.0384,-0.029,-0.0313,-0.0312,-0.0315,-0.0308,-0.0258,-0.024,-0.028,-0.0281,-0.0274,-0.0218,-0.02,-0.0194,-0.0116,-0.0175,-0.0171,-0.0168,-0.0166,0.0011,0.0013,0,0,0,0,0,0,-0.04,-0.0388,-0.0292,-0.0288,-0.0357,-0.0311,-0.0304,-0.028,-0.0241,-0.0237,-0.0273,-0.0275,-0.0207,-0.0199,-0.0191,-0.0115,-0.017,-0.0166,-0.0163,0.001,0.0012,0.0014,0,0,0,0,0,0,-0.0402,-0.0391,-0.0294,-0.0338,-0.0326,-0.0307,-0.028,-0.0278,-0.026,-0.0235,-0.0231,-0.0258,-0.0208,-0.0198,-0.0142,-0.0113,-0.0164,-0.0159,0.0007,0.001,0.0013,0.0039,0,0,0,0,0,0,-0.0406,-0.0392,-0.0367,-0.0337,-0.0324,-0.0247,-0.0278,-0.0275,-0.0253,-0.0256,-0.022,-0.0216,-0.0209,-0.0149,-0.0137,-0.0107,-0.0156,0.0005,0.0009,0.0012,0.0036,0.0043,0.0049,0,0,0,0,0,-0.0411,-0.036,-0.0366,-0.0354,-0.0293,-0.0245,-0.0237,-0.0231,-0.0251,-0.0226,-0.021,-0.0217,-0.0118,-0.0143,-0.013,-0.0098,0.0003,0.0007,0.0012,0.0033,0.0041,0.0049,0,0,0,0,0,0,-0.0384,-0.0356,-0.0362,-0.0301,-0.0276,-0.0248,-0.0216,-0.0222,-0.0189,-0.0192,-0.0185,-0.0176,-0.012,-0.0103,-0.0132,-0.0035,-0.006,-0.0053,-0.0048,-0.004,-0.0034,-0.0039,-0.0152,0,0,0,0,0,-0.0372,-0.0337,-0.0313,-0.0261,-0.0249,-0.0235,-0.0213,-0.0212,-0.0184,-0.0173,-0.0153,-0.0124,-0.0087,-0.0062,-0.0026,0.0038,0.0045,0.0066,0.0072,0.0078,0.0084,0.0116,0.0125,0.0029,0.0029,0.0028,0,0,-0.0344,-0.0325,-0.0303,-0.0256,-0.0236,-0.02,-0.0225,-0.0184,-0.0157,-0.0166,-0.0113,-0.0098,-0.0066,-0.0006,0.0021,0.001,0.0111,0.0083,0.0087,0.009,0.0121,0.0131,0.0139,0.0032,0.0031,0.0031,0,0,-0.0277,-0.0258,-0.0214,-0.0195,-0.0166,-0.0158,-0.0147,-0.0119,-0.011,-0.0058,-0.0065,-0.0031,0.0034,0.0055,0.0075,0.0147,0.0141,0.0159,0.0192,0.0223,0.0231,0.0238,0.0261,0.027,0.0165,0.0165,0.0165,0,-0.0246,-0.0193,-0.019,-0.0151,-0.0131,-0.014,-0.0096,-0.0077,-0.0036,-0.0022,-0.0036,0.0042,0.0063,0.0126,0.0143,0.016,0.0172,0.0155,0.0229,0.0236,0.0243,0.0265,0.0274,0.0167,0.0166,0.0166,0.0166,0,-0.0158,-0.0121,-0.0089,-0.0054,-0.003,0.0012,0.0021,0.0045,0.0044,0.0054,0.0106,0.0131,0.017,0.0185,0.0187,0.0248,0.0239,0.0227,0.0202,0.0253,0.0274,0.0283,0.0169,0.0169,0.0168,0.0168,0,0,-0.007,-0.0037,-0.0025,-0.0011,0.0019,0.0048,0.0089,0.0124,0.0144,0.0172,0.0205,0.0258,0.0246,0.0268,0.0271,0.0299,0.0351,0.0284,0.0284,0.0294,0.0418,0.0425,0.0435,0.0347,0.0349,0.035,0.0414,0,-0.0001,0.0068,0.007,0.0134,0.0167,0.0157,0.0192,0.0215,0.0225,0.0255,0.0267,0.0303,0.0285,0.0298,0.0325,0.0339,0.0376,0.0335,0.0379,0.038,0.0369,0.0447,0.0456,0.0515,0.0423,0.0424,0.0425,0,0.0089,0.0115,0.0181,0.0202,0.0217,0.0248,0.0279,0.0308,0.0333,0.0338,0.036,0.0358,0.04,0.0373,0.043,0.0402,0.042,0.0429,0.0432,0.0435,0.0405,0.0451,0.0534,0.0542,0.0439,0.0438,0.0437,0,0.0143,0.0196,0.0241,0.0254,0.0281,0.0303,0.0316,0.0338,0.0358,0.0386,0.0398,0.0431,0.0449,0.0475,0.0482,0.0462,0.0538,0.0513,0.0543,0.0543,0.0559,0.0558,0.0645,0.0573,0.0573,0.0573,0.0573,0,0.0219,0.0259,0.0265,0.0293,0.0338,0.0339,0.0384,0.0395,0.0415,0.0445,0.0439,0.0468,0.0476,0.0506,0.0512,0.0556,0.0565,0.057,0.0571,0.057,0.0569,0.0582,0.0577,0.0575,0.0575,0.0574,0.0574,0,0.0287,0.0293,0.0341,0.0361,0.0367,0.0399,0.0417,0.0443,0.0451,0.0489,0.0498,0.0511,0.0546,0.0555,0.0598,0.0602,0.0654,0.0652,0.0644,0.0644,0.0673,0.0669,0.077,0.0783,0.0704,0.0705,0.0705,0,0.0335,0.0365,0.0387,0.0405,0.0417,0.0448,0.0467,0.0469,0.049,0.0518,0.0541,0.0574,0.0601,0.0657,0.0671,0.0703,0.07,0.0733,0.0705,0.0702,0.0698,0.0696,0.0698,0.0739,0.0739,0.074,0.0741,0,0.0417,0.0417,0.0444,0.0471,0.0493,0.0515,0.0536,0.0552,0.0557,0.058,0.0614,0.0634,0.0675,0.0708,0.0739,0.0754,0.0748,0.0749,0.0757,0.0756,0.075,0.0751,0.0657,0.0747,0.0746,0.0746,0.0746,0.0745,0.0475,0.05,0.0518,0.0547,0.0563,0.0582,0.0606,0.0616,0.0643,0.0675,0.0675,0.0711,0.0733,0.0773,0.0789,0.0817,0.0808,0.082,0.0823,0.0826,0.0827,0.0745,0.0824,0.0823,0.0823,0.0823,0.0823,0,0.0556,0.0566,0.0592,0.062,0.0642,0.0632,0.0654,0.0674,0.0705,0.0725,0.075,0.0787,0.0818,0.0833,0.0863,0.0883,0.0881,0.0891,0.0889,0.0892,0.0836,0.0824,0.0892,0.0892,0.0892,0.0892,0.0892,0.0892,0.06,0.064,0.0642,0.069,0.0701,0.0734,0.0747,0.0764,0.0779,0.082,0.0844,0.0853,0.087,0.0901,0.0929,0.0932,0.0943,0.0954,0.0956,0.0903,0.0896,0.089,0.0879,0.0957,0.0957,0.101,0.101,0.1011]}]]